Miscellaneous Local Product
Issued by NWS North Platte, NE

Home | Current Version | Previous Version | Graphics & Text | Print | Product List | Glossary On
Versions: 1 2 3 4 5 6 7 8 9 10 11 12 13 14 15 16 17 18 19 20 21 22 23 24 25 26 27 28 29 30 31 32 33 34 35 36 37 38 39 40 41 42 43 44 45 46 47 48 49 50
000
AXUS43 KLBF 241710
MISLBF


WESTERN AND NORTH CENTRAL NEBRASKA HOURLY WEATHER ROUNDUP
NATIONAL WEATHER SERVICE NORTH PLATTE NE
1100 AM CST WED DEC 24 2014

***STATIONS NOT REPORTING VARIABLES SUCH AS SKY/WEATHER OR
PRESSURE ARE PROVIDED BY THE NEBRASKA DEPARTMENT OF
ROADS...RAWS...AND APRS NETWORKS...AND ARE NOT UNDER
NATIONAL WEATHER SERVICE QUALITY CONTROL***

...OBSERVATIONS IN AND NEAR THE EASTERN PANHANDLE OF NEBRASKA...

CITY           SKY/WX    TMP DP  RH WIND       PRES   REMARKS
PINE RIDGE     SUNNY     22  16  78 W3        29.75F
CHADRON        MOSUNNY   27  17  66 S5        29.74F WCI  22
ALLIANCE       SUNNY     31  20  63 W14       29.75F WCI  21
SIDNEY         SUNNY     33  17  51 W13       29.82F WCI  24
WHITECLAY        N/A     18  10  70 E7          N/A  WCI   9
CRESCENT LAKE    N/A     32  23  70 W8          N/A  WCI  25
LISCO            N/A     30  15  53 SW5         N/A  WCI  25
BIG SPRINGS      N/A     25  18  74 W13         N/A  WCI  14
$$

...OBSERVATIONS IN NORTH CENTRAL NEBRASKA...

CITY           SKY/WX    TMP DP  RH WIND       PRES   REMARKS
VALENTINE      MOSUNNY   22  17  81 SW3       29.81F
THEDFORD       SUNNY     29  21  72 SW5       29.83F WCI  23
AINSWORTH      MOSUNNY   25  18  74 SW9       29.82F WCI  16
O`NEILL        CLOUDY    25  25  99 CALM      29.84F FOG
ORD            SUNNY     28  19  69 NW6       29.87F WCI  22
BROKEN BOW     SUNNY     27  19  72 W9        29.86F WCI  18
BROWNLEE         N/A     22  15  72 S3          N/A
SPRINGVIEW       N/A     23  17  78 CALM        N/A
BREWSTER         N/A     30  21  69 W6          N/A  WCI  24
ROSE             N/A     30  23  74 CALM        N/A
SARGENT          N/A     25  20  79 W6          N/A  WCI  18
COMSTOCK         N/A     33  25  72 W5          N/A  WCI  28
CHAMBERS         N/A     28  22  76 W3          N/A
EWING            N/A     25  24  95 CALM        N/A
$$

...OBSERVATIONS IN SOUTHWEST NEBRASKA AND FAR NORTHEAST COLORADO...

CITY           SKY/WX    TMP DP  RH WIND       PRES   REMARKS
WRAY           FAIR      29  17  61 SW7       29.90F WCI  22
HOLYOKE        FAIR      34  19  55 W12       29.86F WCI  25
IMPERIAL       SUNNY     26  15  63 W10       29.88F WCI  16
OGALLALA       SUNNY     25  17  72 W9        29.86F WCI  16
NORTH PLATTE   SUNNY     27  19  72 W12       29.88F WCI  17
MCCOOK         SUNNY     28  16  60 W7        29.93F WCI  21
LEXINGTON      SUNNY     31  22  71 NW12      29.90F WCI  21
PAXTON           N/A     26  21  80 W5          N/A  WCI  20
BRADY            N/A     26  20  79 CALM        N/A
GOTHENBURG       N/A     29  20  67 CALM        N/A
CALLAWAY         N/A     29  24  81 SW3         N/A
$$

...NORTH PLATTE AREA...

CITY           SKY/WX    TMP DP  RH WIND       PRES   REMARKS
AIRPORT        SUNNY     27  19  72 W12       29.88F WCI  17
DOWNTOWN         N/A     27  19  70 W6          N/A  WCI  21
$$

...SOME WEATHER OBSERVATIONS FROM AROUND THE REGION...

CITY           SKY/WX    TMP DP  RH WIND       PRES   REMARKS
DENVER         MOSUNNY   39  13  34 SW8       29.82F WCI  33
LARAMIE        MOSUNNY   25  12  58 SW24G37   29.84F WCI   9
CHEYENNE       SUNNY     35  16  45 W29G37    29.76F WCI  22
SCOTTSBLUFF    SUNNY     23  16  74 CALM      29.78F
RAPID CITY     CLOUDY    24  18  77 CALM      29.68F
PIERRE         SUNNY     17  14  88 SE7       29.78F WCI   8
WINNER         FAIR      23  14  68 SW9       29.81F WCI  13
SIOUX FALLS    LGT SNOW  26  24  92 W8        29.84F FOG     WCI  18
OMAHA          CLOUDY    32  30  92 NW14      29.88F WCI  22
GRAND ISLAND   SUNNY     31  23  72 NW8       29.90F WCI  23
KANSAS CITY    CLOUDY    35  32  88 NW13      29.84S WCI  26
WICHITA        CLOUDY    37  28  70 NW14      29.96S WCI  28
HAYS           FAIR      36  18  48 NW13      29.96S WCI  27
LIBERAL        SUNNY     36  21  55 W13       30.05F WCI  27
GOODLAND       SUNNY     32  16  51 W10       29.92F WCI  24
$$



USA.gov is the U.S. government's official web portal to all federal, state and local government web resources and services.